Tracking 19245 objects as of 21-Aug-2018
HD Live streaming from Space Station
objects crossing your sky now

FENGYUN 1C DEB

Track FENGYUN 1C DEB now!
10-day predictions


NORAD ID: 35169
Int'l Code: 1999-025DMZ
Perigee: 616.2 km
Apogee: 881.8 km
Inclination: 99.2 °
Period: 99.7 minutes
Semi major axis: 7119 km
RCS: 0.0083 m2 (small)
Launch date: May 10, 1999
Source: People's Republic of China (PRC)
Launch site: Taiyaun Space Center, China (TSC)

Note: This is SATELLITE DEBRIS
aabbcc
Your satellite tracking list
Your tracking list is empty




NASA's NSSDC Master Catalog

Two Line Element Set (TLE):
1 35169U 99025DMZ 18232.18263395  .00000256  00000-0  73005-4 0  9994
2 35169  99.1759 214.7643 0186506 148.3450 212.9116 14.45056887538066
Source of the keplerian elements: AFSPC